This is the latest recevied weather packets stored in our database for station/object LA6LOA. If no packets are shown the sender has not sent any weather packets the latest 10 day(s).
| Time | Temp. | Humidity | Pressure | Rain* | Wind** | Luminosity | Snow |
|---|---|---|---|---|---|---|---|
| 1777778777 | 2.22° C | 100% | 1000.1 hPa | 0 mm | - | - | - |
| 1777778477 | 5° C | 100% | 1000.1 hPa | 0 mm | - | - | - |
| 1777778177 | 4.44° C | 100% | 1000.2 hPa | 0 mm | - | - | - |
| 1777777877 | 4.44° C | 100% | 1000.2 hPa | 0 mm | - | - | - |
| 1777777577 | 1.67° C | 100% | 1000.2 hPa | 0 mm | - | - | - |
| 1777777277 | 0° C | 100% | 1000.2 hPa | 0 mm | - | - | - |
| 1777776977 | -0.56° C | 100% | 1000.1 hPa | 0 mm | - | - | - |
| 1777776677 | -0.56° C | 100% | 1000.2 hPa | 0 mm | - | - | - |
| 1777776378 | -1.11° C | 100% | 1000.3 hPa | 0 mm | - | - | - |
| 1777776077 | -1.67° C | 100% | 1000.3 hPa | 0 mm | - | - | - |
| 1777775777 | -1.67° C | 100% | 1000.4 hPa | 0 mm | - | - | - |
| 1777775478 | -1.67° C | 100% | 1000.4 hPa | 0 mm | - | - | - |
| 1777775177 | -1.67° C | 100% | 1000.5 hPa | 0 mm | - | - | - |
| 1777774878 | -1.67° C | 100% | 1000.5 hPa | 0 mm | - | - | - |
| 1777774577 | -1.67° C | 100% | 1000.6 hPa | 0 mm | - | - | - |
| 1777774278 | -1.11° C | 100% | 1000.8 hPa | 0 mm | - | - | - |
| 1777773978 | -1.11° C | 100% | 1000.8 hPa | 0 mm | - | - | - |
| 1777773678 | -1.11° C | 100% | 1000.7 hPa | 0 mm | - | - | - |
| 1777773378 | -1.67° C | 100% | 1000.7 hPa | 0 mm | - | - | - |
| 1777773078 | -1.67° C | 100% | 1000.7 hPa | 0 mm | - | - | - |
| 1777772778 | -1.67° C | 100% | 1000.7 hPa | 0 mm | - | - | - |
| 1777772478 | -1.67° C | 100% | 1000.8 hPa | 0 mm | - | - | - |
| 1777772178 | -1.67° C | 100% | 1000.9 hPa | 0 mm | - | - | - |
| 1777771878 | -1.11° C | 100% | 1001.1 hPa | 0 mm | - | - | - |
| 1777771578 | -1.11° C | 100% | 1001.2 hPa | 0 mm | - | - | - |
* Rain latest hour (hover to see other rain measurements)
** Current wind speed in m/s (hover to see current wind gust speed)